#timestamp,LO_Frequency,Hit,StdDev 
1585904415.4,286046997.3,N
1585904435.2,286046996.5,N
1585904455.1,286046996.8,N
1585904456.0,286046996.8,N
1585904475.8,286046995.0,N
1585904495.6,286046995.0,N
1585904515.5,286046995.4,N
1585904535.3,286046996.1,N
1585904555.2,286046995.7,N
1585904575.9,286046994.1,Y
1585904595.7,286046995.8,P
1585904615.6,286046996.3,P
1585904635.4,286046993.4,P
1585904655.3,286046993.8,Y
1585904675.1,286046998.3,P
1585904676.0,286046998.3,N
1585904695.8,286046998.1,N
1585904715.7,286046999.5,N
1585904735.5,286046999.4,N
1585904755.4,286046999.2,N
1585904775.2,286046998.5,N
1585904795.0,286046999.5,N
1585904795.9,286046999.5,N
1585904815.8,286046999.5,N
1585904835.6,286046997.5,N
1585904855.5,286046996.4,Y
1585904875.3,286046996.9,P
1585904895.1,286046997.6,N
1585904915.9,286046995.6,P
1585904935.7,286046995.2,Y
1585904955.5,286046999.5,P
1585904975.4,286046998.8,N
1585904995.2,286047001.0,N
1585905015.1,286047000.4,N
1585905016.0,286047000.4,N
1585905035.8,286047000.8,N
1585905055.6,286047000.3,N
1585905075.5,286046999.2,N
1585905095.3,286046996.9,N
1585905115.2,286046999.1,N
1585905135.9,286046999.3,N
1585905155.7,286046999.4,N
1585905175.6,286046997.8,N
1585905195.4,286046997.4,N
1585905215.3,286046995.8,Y
1585905235.1,286046996.0,P
1585905236.0,286046996.0,N
1585905255.8,286046996.4,N
1585905275.7,286046996.4,N
1585905295.5,286046996.2,Y
1585905315.3,286046999.4,P
1585905335.2,286047000.8,N
1585905355.0,286046998.5,N
1585905355.9,286046998.5,N
1585905375.8,286046998.3,N
1585905395.6,286046998.6,N
1585905415.4,286046998.9,N
1585905435.3,286046998.7,N
1585905455.1,286046998.5,N
1585905475.9,286046998.6,N
1585905495.7,286046999.1,N
1585905515.5,286046998.4,N
1585905535.4,286046998.2,N
1585905555.2,286047001.2,N
1585905575.0,286046999.0,N
1585905576.0,286046999.0,N
1585905595.8,286046998.9,N
1585905615.6,286046999.1,N
1585905635.5,286046998.9,N
1585905655.3,286046998.3,N
1585905675.1,286047001.2,N
1585905695.9,286046998.1,N
1585905715.7,286046998.3,N
1585905735.6,286046998.1,N
1585905755.4,286047000.3,N
1585905775.2,286047001.6,N
1585905795.1,286047000.3,N
1585905796.0,286047000.3,N
1585905815.8,286047002.2,N
1585905835.6,286047002.2,N
1585905855.5,286047002.7,N
1585905875.3,286047000.4,N
1585905895.2,286047000.4,N
1585905915.9,286046999.9,N
1585905935.7,286046999.7,N
1585905955.6,286047002.1,N
1585905975.4,286046999.7,N
1585905995.3,286047002.5,N
1585906015.1,286046999.8,N
1585906016.0,286046999.8,N
1585906035.8,286047000.0,N
1585906055.7,286047001.9,N
1585906075.5,286047004.4,Y
1585906095.3,286047003.9,P
1585906115.2,286047001.8,N
1585906135.0,286047004.2,N
1585906135.9,286047004.2,N
1585906155.8,286047003.9,N
1585906175.6,286047004.3,N
1585906195.4,286047003.6,N
1585906215.3,286047002.6,N
1585906235.1,286047003.6,N
1585906255.9,286047007.4,Y
1585906275.7,286047002.1,P
1585906295.5,286047002.8,P
1585906315.4,286047004.0,P
1585906335.2,286047002.4,Y
1585906355.1,286046998.7,P
1585906356.0,286046998.7,N
1585906375.8,286047000.4,N
1585906395.6,286046998.8,N
1585906415.5,286046999.7,N
1585906435.3,286047001.3,N
1585906455.1,286047001.4,N
1585906475.9,286047004.3,N
1585906495.7,286047003.7,N
1585906515.6,286047000.1,N
1585906535.4,286047004.3,N
1585906555.2,286047001.7,N
1585906575.1,286047003.0,N
1585906576.0,286047003.0,N
1585906595.8,286047005.8,N
1585906615.7,286047003.3,N
1585906635.5,286047001.7,N
1585906655.3,286046999.7,N
1585906675.2,286047002.7,N
1585906695.0,286047002.6,N
1585906695.9,286047002.6,N
1585906715.8,286047002.1,N
1585906735.6,286047002.2,N
1585906755.4,286046998.1,N
1585906775.3,286046996.9,N
1585906795.1,286046996.8,N
1585906815.8,286047000.8,N
1585906835.7,286047002.7,N
1585906855.5,286047004.4,N
1585906875.4,286047001.8,N
1585906895.2,286047004.0,N
1585906915.0,286047000.3,N
1585906915.9,286047000.3,N
1585906935.8,286046999.7,N
1585906955.6,286047000.7,N
1585906975.4,286047001.1,N
1585906995.3,286047001.2,N
1585907015.1,286046999.8,N
1585907035.9,286047002.4,N
1585907055.7,286047004.4,N
1585907075.5,286047003.2,N
1585907095.4,286047002.0,N
1585907115.2,286047001.5,N
1585907135.1,286047004.9,N
1585907136.0,286047004.9,N
1585907155.8,286047005.8,N
1585907175.6,286047005.2,N
1585907195.5,286047004.7,N
1585907215.3,286047005.5,N
1585907235.2,286047005.8,N
1585907255.9,286047004.9,N
1585907275.7,286047002.1,N
1585907295.6,286047004.4,N
1585907315.4,286047004.1,N
1585907335.2,286047003.4,N
1585907355.1,286047006.0,N
1585907356.0,286047006.0,Y
1585907375.8,286047002.6,P
1585907395.7,286046999.7,N
1585907415.5,286047002.2,N
1585907435.3,286047002.4,N
1585907455.2,286046996.9,N
1585907475.0,286046999.2,N
1585907475.9,286046999.2,N
1585907495.8,286046998.3,N
1585907515.6,286047000.8,N
1585907535.4,286046998.5,N
1585907555.3,286047000.4,N
1585907575.1,286046998.1,N
1585907595.8,286046998.4,N
1585907615.7,286046998.5,N
1585907635.5,286046999.5,N
1585907655.4,286046999.1,N
1585907675.2,286047000.5,N
1585907695.0,286047002.6,N
1585907695.9,286047002.6,N
1585907715.8,286047002.4,N
1585907735.6,286047001.7,N
1585907755.5,286047004.3,N
1585907775.3,286047000.1,N
1585907795.1,286047001.0,N
1585907815.9,286046999.9,N
1585907835.7,286046998.5,N
1585907855.5,286047001.6,N
1585907875.4,286047000.4,N
1585907895.2,286046998.7,N
1585907915.1,286047001.1,N
1585907916.0,286047001.1,N
1585907935.8,286046998.6,N
1585907955.6,286046996.5,N
1585907975.5,286046998.7,N
1585907995.3,286047000.3,N
